Location: Aurora Center
(43.5271°N, 98.5894°W)
Time: 01:50:01
(UTC-05:00)

BlueWalker 3 - Pass Details

Date: 18 June 2024
Orbit: 480 x 492 km, 53.2° (Epoch: 15 July)

Event Time Altitude Azimuth Distance (km) Brightness Sun altitude
Rises 23:01:31 0° 236° (SW) 2,531 5.5 -14.3°
Reaches altitude 10° 23:03:40 10° 237° (WSW) 1,653 4.6 -14.5°
Maximum altitude 23:07:24 80° 324° (NW) 492 1.9 -14.9°
Drops below altitude 10° 23:11:08 10° 53° (NE) 1,657 4.6 -15.3°
Sets 23:13:19 0° 54° (NE) 2,539 5.5 -15.5°
